Skip Page Navigation
NASA JPL Caltech
NASA Logo - Jet Propulsion Laboratory + View the NASA Portal
+ Center for Near-Earth Object Studies
JPL Home Earth Solar System Stars & Galaxies Technology
JPL Solar System Dynamics
BODIES ORBITS EPHEMERIDES TOOLS PHYSICAL DATA DISCOVERY FAQ SITE MAP
JPL Small-Body Database Browser
Search: [ help ]  
18602 Lagillespie (1998 BX12)
Classification: Main-belt Asteroid          SPK-ID: 2018602
Ephemeris | Orbit Diagram | Orbital Elements | Mission Design | Physical Parameters | Discovery Circumstances ]

[ show orbit diagram ]
Orbital Elements at Epoch 2459396.5 (2021-Jul-01.0) TDB
Reference: JPL 29 (heliocentric ecliptic J2000)
 Element Value Uncertainty (1-sigma)   Units 
e .125165370655626 3.5405e-08  
a 2.424476452972003 7.6674e-09 au
q 2.121015959089925 8.758e-08 au
i 3.689648120292864 3.0555e-06 deg
node 102.3959964856528 6.069e-05 deg
peri 104.9426524097465 6.2065e-05 deg
M 2.631885588536087 1.2902e-05 deg
tp 2459386.419318627811
(2021-Jun-20.91931863)
4.941e-05 TDB
period 1378.876539996765
3.78
6.5411e-06
1.791e-08
d
yr
n .2610821125442054 1.2385e-09 deg/d
Q 2.727936946854081 8.6271e-09 au
  Orbit Determination Parameters
   # obs. used (total)      1619  
   data-arc span      10525 days (28.82 yr)  
   first obs. used      1992-09-02  
   last obs. used      2021-06-27  
   planetary ephem.      DE441  
   SB-pert. ephem.      SB441-N16  
   condition code      0  
   norm. resid. RMS      .49177  
   source      ORB  
   producer      Otto Matic  
   solution date      2021-Jul-08 04:38:40  

Additional Information
 Earth MOID = 1.12047 au 
 Jupiter MOID = 2.2343 au 
 T_jup = 3.498 
[ show covariance matrix ]

Ephemeris | Orbit Diagram | Orbital Elements | Mission Design | Physical Parameters | Discovery Circumstances ]

Physical Parameter Table
Parameter Symbol Value Units Sigma Reference Notes
absolute magnitude H 14.98   n/a MPCxxxxx  
diameter diameter 2.746 km 0.183 urn:nasa:pds:neowise_diameters_albedos::2.0[mainbelt] (http://adsabs.harvard.edu/abs/2011ApJ...741...68M)  
rotation period rot_per 5.76 h n/a LCDB (Rev. 2020-October); Warner et al., 2009 Result based on less than full coverage, so that the period may be wrong by 30 percent or so.
Published Reference List:
[Chang, C.-K.; Ip, W.-H.; Cheng, Y.-C.; Ngeow, C.-C.; et al. (2014) Astrophys. J. 788, A17.]
[Erasmus, N.; Navarro-Meza, S.; McNeill, A.; Trilling, D.E.; et al. (2020) Ap. J. Suppl. Ser. 247, A13.]
geometric albedo albedo 0.446   0.139 urn:nasa:pds:neowise_diameters_albedos::2.0[mainbelt] (http://adsabs.harvard.edu/abs/2011ApJ...741...68M)  

18602 Lagillespie           Discovered 1998 Jan. 23 by the Lincoln Laboratory Near-Earth Asteroid Research Team at Socorro.
Lacy Ann Gillespie (b. 1985) was awarded second place in the 2003 Intel International Science and Engineering Fair for her zoology project. She attends the North Toole County High School, Sunburst, Montana, U.S.A.
NOTE: some special characters may not display properly (any characters within {} are an attempt to place the proper accent above a character)
Reference: 20040614/MPCPages.arcLast Updated: 2009-12-11

Alternate Designations
 1998 BX12 = 1992 RB7 
Ephemeris | Orbit Diagram | Orbital Elements | Mission Design | Physical Parameters | Discovery Circumstances ]
ABOUT SSD CREDITS/AWARDS PRIVACY/COPYRIGHT GLOSSARY LINKS
FirstGov 2021-Aug-05 09:31 UT
(server date/time)  
NASA Home Page
Site Manager:   Ryan S. Park
Webmaster  Alan B. Chamberlin